This is the latest recevied weather packets stored in our database for station/object HEBOWX. If no packets are shown the sender has not sent any weather packets the latest 10 day(s).
| Time | Temp. | Humidity | Pressure | Rain* | Wind** | Luminosity | Snow |
|---|---|---|---|---|---|---|---|
| 1778083232 | 12.22° C | 63% | 1017 hPa | 0 mm | - | - | - |
| 1778082934 | 12.22° C | 65% | 1016.9 hPa | 0 mm | - | - | - |
| 1778082633 | 12.22° C | 65% | 1016.9 hPa | 0 mm | - | - | - |
| 1778082331 | 12.22° C | 65% | 1016.7 hPa | 0 mm | - | - | - |
| 1778082034 | 12.22° C | 66% | 1016.7 hPa | 0 mm | - | - | - |
| 1778081731 | 11.67° C | 66% | 1016.7 hPa | 0 mm | - | - | - |
| 1778081432 | 11.67° C | 66% | 1016.9 hPa | 0 mm | - | - | - |
| 1778081134 | 11.67° C | 67% | 1016.7 hPa | 0 mm | - | - | - |
| 1778080832 | 11.11° C | 70% | 1016.7 hPa | 0 mm | - | - | - |
| 1778080531 | 11.11° C | 70% | 1016.5 hPa | 0 mm | - | - | - |
| 1778080232 | 10.56° C | 70% | 1016.5 hPa | 0 mm | - | - | - |
| 1778079931 | 10.56° C | 71% | 1016.4 hPa | 0 mm | - | - | - |
| 1778079632 | 10° C | 71% | 1016.3 hPa | 0 mm | - | - | - |
| 1778079333 | 10° C | 71% | 1016.2 hPa | 0 mm | - | - | - |
| 1778079031 | 10° C | 72% | 1016.1 hPa | 0 mm | - | - | - |
| 1778078731 | 9.44° C | 72% | 1016.2 hPa | 0 mm | - | - | - |
| 1778078431 | 9.44° C | 72% | 1016.3 hPa | 0 mm | - | - | - |
| 1778078131 | 9.44° C | 72% | 1016.3 hPa | 0 mm | - | - | - |
| 1778077831 | 9.44° C | 71% | 1016.3 hPa | 0 mm | - | - | - |
| 1778077533 | 8.89° C | 71% | 1016.4 hPa | 0 mm | - | - | - |
| 1778077234 | 8.89° C | 71% | 1016.3 hPa | 0 mm | - | - | - |
| 1778076931 | 8.89° C | 70% | 1016.2 hPa | 0 mm | - | - | - |
| 1778076632 | 8.89° C | 69% | 1016.2 hPa | 0 mm | - | - | - |
| 1778076331 | 8.89° C | 66% | 1016.3 hPa | 0 mm | - | - | - |
| 1778076032 | 8.89° C | 66% | 1016.1 hPa | 0 mm | - | - | - |
* Rain latest hour (hover to see other rain measurements)
** Current wind speed in m/s (hover to see current wind gust speed)